User: anonymous   Login
Location: Cypress Hills Dark-Sky Preserve - CHICO
(49.6176°N, 110.2634°W)
Time: 02:15:36
(UTC-07:00)
Language:

SPOT 5 - Orbit

View from above orbital plane
View from above orbital plane
View from above satellite
View from above satellite

Ground track
Ground track

The orbit data is extracted from the following two-line orbital elements,

1 27421U 02021A   14355.77869091  .00000388  00000-0  20190-3 0  2386
2 27421 098.5400 052.7221 0000892 088.2946 047.5407 14.20104851654940
Epoch (UTC): 21 December 2014 18:41:18
Eccentricity: 0.0000892
inclination: 98.5400°
perigee height: 824 km
apogee height: 825 km
right ascension of ascending node: 52.7221°
argument of perigee: 88.2946°
revolutions per day: 14.20104851
mean anomaly at epoch: 47.5407°
orbit number at epoch: 65494

The dashed part of the orbit path shows where the satellite is in the earth's shadow,  

DLR